Location: Wheeling
(40.0640°N, 80.7210°W)
Time: 13:39:15
(UTC-05:00)

ITAMSAT 1 - Pass Details

Date: 30 October 2021
Orbit: 784 x 796 km, 98.9° (Epoch: 01 December)

Event Time Altitude Azimuth Distance (km) Brightness Sun altitude
Rises 19:29:47 0° 156° (SSE) 3,260 10.7 -13.4°
Reaches altitude 10° 19:32:06 10° 153° (SSE) 2,337 9.9 -13.9°
Maximum altitude 19:37:11 63° 73° (ENE) 874 7.6 -14.8°
Drops below altitude 10° 19:42:20 10° 353° (N) 2,359 10.2 -15.8°
Sets 19:44:41 0° 350° (N) 3,293 10.9 -16.3°
